Regional Weather Roundup
Issued by NWS

Home | Current Version | Previous Version | Text Only | Print | Product List | Glossary On
Versions: 1 2 3 4 5 6 7 8 9 10 11 12 13 14 15 16 17 18 19 20 21 22 23 24 25 26 27
000
ASUS45 KTFX 181810
RWRMT
MONTANA REGIONAL WEATHER ROUNDUP
NATIONAL WEATHER SERVICE GREAT FALLS MT
1200 PM MDT FRI AUG 18 2017

NOTE: "FAIR" INDICATES FEW OR NO CLOUDS BELOW 12000 FEET WITH NO
SIGNIFICANT WEATHER AND/OR OBSTRUCTIONS TO VISIBILITY.

MTZ001>007-043-181900-
WEST OF THE DIVIDE

CITY           SKY/WX    TMP DP  RH WIND       PRES   REMARKS
KALISPELL      SUNNY     78  45  30 S15       30.03F
MISSOULA       SUNNY     72  41  32 SE5       30.09F HAZE
BUTTE          SUNNY     74  31  20 VRB5      30.19F
MULLAN PASS    SUNNY     67  38  34 CALM      30.22S
ANACONDA         N/A     79  30  17 S10G16    30.14F
DEER LODGE       N/A     72  36  26 CALM      30.16F
EUREKA           N/A     82  41  23 MISG      29.98F
HAMILTON         N/A     72  43  35 N6        30.10F
LIBBY            N/A     79  43  27 CALM      30.00F
PLAINS           N/A     77  46  33 CALM      30.04F
RONAN            N/A     78  37  22 CALM      30.10F
$$

MTZ008-052>055-181900-
SOUTHWEST MONTANA

CITY           SKY/WX    TMP DP  RH WIND       PRES   REMARKS
BOZEMAN        SUNNY     77  41  27 NE5       30.13F HAZE
DILLON         SUNNY     75  41  29 SW14      30.16F
W YELLOWSTONE  SUNNY     70  28  21 SW13G24   30.28F
ENNIS          SUNNY     77  34  20 SW6       30.22F
THREE FORKS      N/A     76  40  27 E5        30.10F
TWIN BRIDGES     N/A     73  37  26 CALM      30.14F
$$

MTZ009-010-012-014-046-048-049-054-181900-
EAST SLOPES AND CENTRAL MONTANA

CITY           SKY/WX    TMP DP  RH WIND       PRES   REMARKS
CUT BANK       SUNNY     81  35  19 W8        29.98F
GREAT FALLS    SUNNY     81  32  17 SW14G22   30.01F
MALMSTROM AFB  SUNNY     81  34  18 SW14      30.01F
HELENA         SUNNY     82  29  14 W16G22    30.07F
AUGUSTA          N/A     79  32  17 W6        30.04F
BOWMANS CRNR     N/A     78  32  18 S13G20    30.03F
CHOTEAU          N/A     81  36  19 CALM      30.02F
FAIRFIELD        N/A     80  32  17 SW13      30.01F
POWER            N/A     79  33  19 W7        30.00F
RAYNESFORD       N/A     79  30  16 W7        30.03F
ULM              N/A     80  29  15 W14G20    30.02F
$$

MTZ011-013-016-021-045-047-050-051-181900-
NORTH CENTRAL MONTANA

CITY           SKY/WX    TMP DP  RH WIND       PRES   REMARKS
HAVRE          SUNNY     84  39  20 SW15      29.93F
LEWISTOWN      SUNNY     78  37  22 NW6       30.04F
N BAR RANCH      N/A     81  36  19 N12       30.07F
CHINOOK          N/A     81  43  26 SW5       29.93F
DENTON           N/A     78  37  22 S3        29.98F
GEYSER           N/A     78  34  20 W16G22    30.03F
GRASS RANGE      N/A     81  35  18 S7        29.98F
JUDITH GAP       N/A     78  31  17 W13       30.06F
WINIFRED         N/A     77  37  23 N6        30.01F
$$

MTZ017>020-022>027-061-062-181900-
NORTHEAST MONTANA

CITY           SKY/WX    TMP DP  RH WIND       PRES   REMARKS
GLASGOW        SUNNY     81  43  26 W3        29.94F
JORDAN           N/A    N/A N/A N/A MISG      29.96F
SIDNEY         SUNNY     78  54  43 E3        29.97F
WOLF POINT     SUNNY     83  46  27 VRB5      29.94F
MALTA          SUNNY     81  50  34 VRB3      29.93F
PLENTYWOOD       N/A     77  46  33 SW6       29.96F
POPLAR           N/A     79  52  38 CALM      29.96F
SCOBEY           N/A     78  47  33 S9        29.95F
$$

MTZ028>42-056>058-181900-
SOUTHCENTRAL AND SOUTHEAST MONTANA

CITY           SKY/WX    TMP DP  RH WIND       PRES   REMARKS
BAKER          SUNNY     81  43  26 MISG      30.03F
BILLINGS       SUNNY     78  41  26 SW9       30.05F
LIVINGSTON     SUNNY     79  41  25 NW6       30.10F
MILES CITY     SUNNY     82  40  22 CALM      29.99F
BIG TIMBER     SUNNY     81  36  19 W21G30    30.10F
EKALAKA          N/A     80  40  24 W5        30.03F
HARLOWTON        N/A     80  27  14 MISG      30.07F
LAUREL           N/A     81  41  24 SE3       30.04F
$$

REGIONAL REPORTS...DAKOTAS

CITY           SKY/WX    TMP DP  RH WIND       PRES   REMARKS
WILLISTON      SUNNY     79  52  38 VRB3      29.96F
MINOT          SUNNY     79  50  36 W14G20    29.92F
DICKINSON      SUNNY     79  50  36 NW5       29.99F
BEACH            N/A     79  43  27 NW6G14    30.03F
CROSBY           N/A     77  45  31 VRB7      29.95F
TIOGA            N/A     75  50  41 NW6G13    29.98F
WATFORD CITY     N/A     79  46  31 NW5       29.96F
BISMARCK       SUNNY     76  56  49 W7        29.97R
GRAND FORKS    PTSUNNY   80  58  46 NW8       29.85R
FARGO          CLOUDY    76  61  59 SW7       29.87F
BUFFALO SD       N/A     80  47  31 NW6       29.98F
RAPID CITY     SUNNY     82  46  28 N10       30.05F
$$

REGIONAL REPORTS...WYOMING/IDAHO/WASHINGTON

CITY           SKY/WX    TMP DP  RH WIND       PRES   REMARKS
GILLETTE       SUNNY     81  34  18 VRB3      30.10F
SHERIDAN       SUNNY     85  36  17 SE5       30.06F
BUFFALO WY     SUNNY     82  31  15 MISG      30.14F
CODY           SUNNY     82  36  19 SW10G20   30.13F
YELLOWSTONE LA   N/A     65  43  44 CALM      30.36F
IDAHO FALLS    SUNNY     77  39  25 SW16      30.19F
SALMON         SUNNY     72  43  35 CALM      30.15F
BOISE          SUNNY     79  42  26 W5        30.11F
SPOKANE        MOSUNNY   76  43  30 SW15      30.05F
$$

REGIONAL REPORTS...ALBERTA

CITY           SKY/WX    TMP DP  RH WIND       PRES   REMARKS
EDMONTON       SUNNY     73  55  53 S8        29.75F
CALGARY        PTSUNNY   79  45  29 S8        29.85F
LETHBRIDGE     MOSUNNY   84  39  20 W22G32    29.87F
MEDICINE HAT   SUNNY     82  45  26 S15       29.85F
$$

REGIONAL REPORTS...SASKATCHEWAN

CITY           SKY/WX    TMP DP  RH WIND       PRES   REMARKS
SWIFT CURRENT  SUNNY     79  46  31 S9        29.91F
REGINA         MOSUNNY   77  45  31 W13       29.91F
SASKATOON      SUNNY     75  52  43 W8        29.89F
$$




USA.gov is the U.S. government's official web portal to all federal, state and local government web resources and services.